User: anonymous   Login
Location: Unspecified
(0.0000°N, 0.0000°E)
Time: 10:17:45
(UTC+00:00)
Language:

Mayak - Orbit

View from above orbital plane
View from above orbital plane
View from above satellite
View from above satellite

Ground track
Ground track

The orbit data is extracted from the following two-line orbital elements,

1 42830U 17042F   22338.78712966  .00006567  00000-0  57711-3 0  9993
2 42830  97.4120 188.4501 0013406 138.4504 221.7740 14.96801658293744
Epoch (UTC): 04 December 2022 18:53:28
Eccentricity: 0.0013406
inclination: 97.4120°
perigee height: 567 km
apogee height: 586 km
right ascension of ascending node: 188.4501°
argument of perigee: 138.4504°
revolutions per day: 14.96801658
mean anomaly at epoch: 221.7740°
orbit number at epoch: 29374

The dashed part of the orbit path shows where the satellite is in the earth's shadow,  

DLR